Simultaneous Nadir Overpasses (SNOs) Predictions

Prediction of SNOs between GOES-17 and TERRA Satellite Orbit:

Table of predicted SNOs for the next 14.0 days since TLE Epoch: 4/11/2025
Index Date Time (GOES-17) GOES-17 Lat,Lon TERRA Lat,Lon Distance(km) Time Diff (sec)
1 04/12/2025 04:25:48 -0.04,-104.37 -0.18,-105.02 73.99 80
2 04/14/2025 04:09:30 -0.04,-104.37 0.79,-100.45 445.20 80
3 04/14/2025 16:29:00 0.04,-104.41 0.20,-105.20 88.75 80
4 04/16/2025 16:07:21 0.03,-104.41 -0.76,-100.62 430.32 80
5 04/17/2025 04:27:01 -0.03,-104.36 -0.23,-105.41 118.93 80
6 04/19/2025 04:10:41 -0.03,-104.35 0.71,-100.83 400.09 80
7 04/19/2025 16:30:11 0.03,-104.40 0.25,-105.58 133.79 80
8 04/21/2025 16:08:30 0.02,-104.39 -0.67,-100.99 385.50 80
9 04/22/2025 04:28:09 -0.02,-104.34 -0.30,-105.78 163.69 80
10 04/24/2025 04:11:49 -0.02,-104.33 0.66,-101.20 356.20 80
11 04/24/2025 16:28:37 0.01,-104.38 0.34,-105.94 177.35 80
